Regional Weather Roundup
Issued by NWS

Home | Current Version | Previous Version | Graphics & Text | Print | Product List | Glossary On
Versions: 1 2 3 4 5 6 7 8 9 10 11 12 13 14 15 16 17 18 19 20 21 22 23 24 25 26 27 28 29 30 31 32 33 34 35 36 37 38 39 40 41 42 43 44 45 46 47 48 49 50
000
ASUS43 KLMK 190910
RWRKY
KENTUCKY REGIONAL WEATHER ROUNDUP
NATIONAL WEATHER SERVICE LOUISVILLE KY
400 AM EST FRI JAN 19 2018

NOTE "FAIR" INDICATES FEW OR NO CLOUDS BELOW 12,000 FEET
WITH NO SIGNIFICANT WEATHER AND/OR OBSTRUCTIONS TO VISIBILITY.

KYZ001>023-026-027-061>063-070>075-191000-
WESTERN AND SOUTH CENTRAL KENTUCKY

CITY           SKY/WX    TMP DP  RH WIND       PRES   REMARKS
PADUCAH        FAIR      22  11  62 S3        30.25F
HENDERSON      FAIR      23  14  68 SW12      30.24S WCI  12
OWENSBORO      FAIR      14   8  77 S6        30.25F WCI   5
HOPKINSVILLE   FAIR      21  11  64 SW5       30.27S WCI  14
BOWLING GREEN  FAIR      13   8  81 CALM      30.29R
GLASGOW        FAIR      20  12  72 CALM      30.27S
$$

KYZ024-025-028>034-038-045-046-053-191000-
NORTH CENTRAL KENTUCKY

CITY           SKY/WX    TMP DP  RH WIND       PRES   REMARKS
LOUISVILLE/SDF FAIR      26  12  55 SW10      30.23F WCI  16
LOUISVILLE/LOU FAIR      23  13  65 S8        30.24F WCI  14
FORT KNOX      FAIR      20  10  66 SW5       30.22F WCI  13
$$

KYZ035>037-039>044-047>052-055>060-089>105-191000-
NORTHEAST KENTUCKY

CITY           SKY/WX    TMP DP  RH WIND       PRES   REMARKS
LEXINGTON      FAIR      21  11  65 SW14      30.23S WCI   8
COVINGTON      FAIR      21  13  71 SW7       30.18R WCI  12
FRANKFORT      FAIR      23  10  57 SW12      30.21F WCI  12
$$

KYZ054-064>069-076>088-106>120-191000-
SOUTHEAST KENTUCKY

CITY           SKY/WX    TMP DP  RH WIND       PRES   REMARKS
JACKSON        FAIR      23  10  57 S5        30.22S WCI  17
LONDON         FAIR      17  10  74 SW5       30.25F WCI  10
SOMERSET       FAIR      18  12  79 W6        30.28F WCI   9
MIDDLESBORO    FAIR      13  12  94 CALM      30.30F
MONTICELLO     FAIR       8   4  83 CALM      30.29F
$$




USA.gov is the U.S. government's official web portal to all federal, state and local government web resources and services.